{"data":{"norad_id":53070,"epoch":"2026-09-19T22:58:12.118080Z","epoch_age_seconds":119223,"freshness":"FRESH","line1":"1 53070U 22077AD  26262.95708470  .00005542  00000+0  17382-3 0  9990","line2":"2 53070  97.2842  78.6178 0001904  91.4171 268.7290 15.33450470230262","mean_motion":15.3345047,"eccentricity":0.0001904,"inclination_deg":97.2842,"raan_deg":78.6178,"arg_perigee_deg":91.4171,"mean_anomaly_deg":268.729,"bstar":0.00017382,"rev_number":23026,"period_min":93.905869682247,"perigee_km":464.22386604849,"apogee_km":466.82993326148,"semimajor_km":6843.663899655,"source":"CELESTRAK","updated_at":"2026-09-20T09:00:40.155527Z"}}